Regional Weather Roundup
Issued by NWS

Home | Current Version | Previous Version | Text Only | Print | Product List | Glossary Off
Versions: 1 2 3 4 5 6 7 8 9 10 11 12 13 14 15 16 17 18 19 20 21 22 23 24 25 26 27 28 29 30 31 32 33 34 35 36 37 38 39 40 41 42 43 44 45 46 47 48 49 50

110
ASUS45 KBOU 101607
RWRCO

WEATHER ROUNDUP FOR COLORADO
NATIONAL WEATHER SERVICE DENVER/BOULDER CO
900 AM MST SAT DEC 10 2016

NOTE: "FAIR" INDICATES FEW OR NO CLOUDS BELOW 12000 FEET WITH NO
SIGNIFICANT WEATHER AND/OR OBSTRUCTIONS TO VISIBILITY.

COZ001>005-013-030-031-101700-
...NORTHWEST COLORADO...

CITY           SKY/WX    TMP DP  RH WIND       PRES   REMARKS
CRAIG          FAIR      31  24  75 CALM      29.98F
HAYDEN         CLOUDY    27  19  74 CALM      29.98F
MEEKER         FAIR      41  27  57 W15       30.00F
MOUNT WERNER   NOT AVBL
STEAMBOAT SPGS CLOUDY    23  21  93 CALM      29.99F
WALDEN           N/A     34  19  55 S5        29.98S WCI  30
$$

COZ006>008-011-101700-
...WEST CENTRAL VALLEYS...

CITY           SKY/WX    TMP DP  RH WIND       PRES   REMARKS
GRAND JUNCTION FAIR      26  22  84 CALM      30.12F
MONTROSE       FAIR      29  25  85 CALM      30.14S
EAGLE          SUNNY     23  21  93 E8        30.07F WCI  14
RIFLE          FAIR      24  21  88 CALM      30.12S
DELTA          FAIR      27  22  79 CALM      30.13F
NUCLA          FAIR      30  23  74 CALM      30.18S
$$

COZ017>023-064>068-101700-
...SOUTHWEST COLORADO...

CITY           SKY/WX    TMP DP  RH WIND       PRES   REMARKS
DURANGO        FAIR      28  20  71 E3        30.22F
CORTEZ         FAIR      31  27  85 CALM      30.18F
PAGOSA SPRINGS FAIR      28  21  74 CALM      30.25S
TELLURIDE      NOT AVBL
WOLF CREEK PAS FAIR      21  19  93 SW21G31   30.29S WCI   6
$$

COZ009-010-012-014-032>034-037-058>063-101700-
...CENTRAL COLORADO...

CITY           SKY/WX    TMP DP  RH WIND       PRES   REMARKS
ASPEN          CLOUDY    32  24  72 CALM      30.05S
BUENA VISTA    FAIR      44  14  30 SE8       30.04R
COPPER MTN     NOT AVBL
BERTHOUD PASS  LGT SNOW  21  10  63 W39G54    30.01S WCI   1
COTTONWOOD PAS FAIR      41  10  28 W26G43    30.05S
GUNNISON       FOG       11   9  92 CALM      30.22S VSB 1/4
KREMMLING      PTSUNNY   43  25  49 W8G17     29.99F
LEADVILLE      FAIR      28  14  55 VRB6      30.05F WCI  22
MONARCH PASS   FAIR      21  16  79 SW32G39   30.26R WCI   2
SALIDA         FAIR      42  18  37 SW8G22    30.12F
SUNLIGHT       PTSUNNY   27  21  80 SW25G39   30.11S WCI  11
WILKERSON PASS FAIR      28  12  50 SW20G28   30.09F WCI  15
$$

COZ069>075-101700-
...SAN LUIS VALLEY/SANGRE DE CRISTO MOUNTAINS...

CITY           SKY/WX    TMP DP  RH WIND       PRES   REMARKS
ALAMOSA        FAIR      20  16  84 CALM      30.18F
LA VETA PASS   FAIR      25  19  80 NE37G47   30.07F WCI   6
SAGUACHE       FAIR      25  18  74 NW5       30.19R WCI  19
$$

COZ035-036-038>040-101700-
...NORTHERN COLORADO FRONT RANGE...

CITY           SKY/WX    TMP DP  RH WIND       PRES   REMARKS
DENVER INTL AP PTSUNNY   31  24  75 E3        29.87S
DMNS CITY PARK   N/A     29  22  74 MISG      29.87S
AURORA         PTSUNNY   43  27  53 S7        29.87S
FRONT RANGE AP NOT AVBL
ERIE MUNI ARPT FAIR      22  20  92 CALM      29.88S FOG
BOULDER MUN AP FAIR      25  21  86 SE3       29.87F
CENTENNIAL     PTSUNNY   46  20  35 S9        29.87S
BROOMFIELD     PTSUNNY   32  25  74 SW6       29.87S WCI  26
FORT COLLINS   FAIR      19  18  93 CALM      29.89F
LONGMONT       FAIR      22  18  85 SW6       29.91S WCI  14
$$

COZ041-046-047-076>085-087-088-101700-
...PIKES PEAK/PALMER DIVIDE AND SOUTHERN FOOTHILLS...

CITY           SKY/WX    TMP DP  RH WIND       PRES   REMARKS
COLO. SPRINGS  PTSUNNY   39  22  50 NE8       29.94F
A. F. ACADEMY  FAIR      28  20  71 E5        29.92F WCI  23
SCHRIEVER AFB  NOT AVBL
ELLICOTT       FAIR     N/A N/A N/A S5        29.91F
FALCON         FAIR      40  20  43 S5        29.96S
FORT CARSON    FAIR      32  22  68 NW8       29.91F WCI  25
LIMON          FAIR      33  26  75 CALM      29.90F
MONUMENT HILL  FAIR      45  18  33 SW8       29.94S
TRINIDAD       FAIR      48  18  30 W10       30.00S
$$

COZ042>045-048>051-090-091-101700-
...NORTHEAST COLORADO...

CITY           SKY/WX    TMP DP  RH WIND       PRES   REMARKS
GREELEY ARPT   FAIR      18  15  88 N3        29.91F
AKRON          FAIR      26  20  77 SW9       29.88F WCI  17
BURLINGTON     FAIR      26  20  77 S8        29.94F WCI  18
WRAY           FAIR      21  19  93 CALM      29.95
STERLING       FAIR      19  16  86 S3        29.93S
HOLYOKE        CLOUDY    23  19  86 S5        29.96F WCI  17
FORT MORGAN    FAIR      21  17  86 W8G16     29.91F WCI  11
$$

COZ086-089-092>099-101700-
...SOUTHEAST COLORADO...

CITY           SKY/WX    TMP DP  RH WIND       PRES   REMARKS
PUEBLO         FAIR      27  18  69 VRB3      29.94F
LA JUNTA       FAIR      27  15  61 S3        29.98F
LAMAR          FAIR      21  15  78 N5        29.99F WCI  15
SPRINGFIELD      N/A     38  27  64 S3        29.96F
$$




USA.gov is the U.S. government's official web portal to all federal, state and local government web resources and services.